WET,Max TemperatureF,Mean TemperatureF,Min TemperatureF,Max Dew PointF,MeanDew PointF,Min DewpointF,Max Humidity, Mean Humidity, Min Humidity, Max Sea Level PressureIn, Mean Sea Level PressureIn, Min Sea Level PressureIn, Max VisibilityMiles, Mean VisibilityMiles, Min VisibilityMiles, Max Wind SpeedMPH, Mean Wind SpeedMPH, Max Gust SpeedMPH,PrecipitationIn, CloudCover, Events, WindDirDegrees
2013-11-1,73,62,50,57,50,41,72,58,35,30.30,30.24,30.18,9,9,6,14,6,,0.00,1,,341
2013-11-2,71,60,50,59,53,43,77,63,39,30.22,30.15,30.09,9,8,6,9,5,,0.00,,,9
2013-11-3,82,66,51,54,46,39,77,43,18,30.19,30.13,30.06,9,7,6,7,4,,0.00,,,103
2013-11-4,75,68,60,61,55,45,68,59,38,30.23,30.18,30.12,12,6,5,16,7,,0.00,4,,270
2013-11-5,78,70,61,61,58,55,68,60,49,30.25,30.20,30.15,6,6,6,16,8,,0.00,2,,291
2013-11-6,77,67,57,57,55,48,72,57,42,30.21,30.17,30.12,9,8,6,9,5,,0.00,,,82
2013-11-7,73,64,54,61,56,46,77,67,42,30.19,30.16,30.12,9,6,5,9,5,,0.00,3,,8
2013-11-8,73,66,59,59,56,54,65,59,50,30.23,30.18,30.15,9,6,6,14,6,,0.00,4,,294
2013-11-9,73,66,57,59,52,45,67,58,46,30.33,30.27,30.21,9,6,6,14,6,23,0.00,2,,273
2013-11-10,72,61,50,57,52,42,82,63,43,30.39,30.31,30.27,9,6,6,9,4,,0.00,2,,165
2013-11-11,77,65,53,59,47,39,68,48,26,30.24,30.17,30.12,9,8,6,12,7,,0.00,,,238
2013-11-12,77,68,57,59,50,44,67,48,28,30.16,30.13,30.09,9,7,1,14,5,,0.00,,,27
2013-11-13,78,64,51,59,50,43,72,54,32,30.15,30.10,30.04,9,7,6,129,8,,0.00,1,,43
2013-11-14,68,60,53,57,52,43,82,67,33,30.24,30.20,30.15,6,6,5,7,4,,0.12,4,Rain,1
2013-11-15,70,66,62,61,57,52,88,76,56,30.11,30.00,29.92,9,6,5,14,7,,0.00,3,Rain,28
2013-11-16,62,56,50,52,45,42,82,65,43,30.04,30.02,29.98,6,6,5,12,5,28,0.08,5,Rain-Thunderstorm,138
2013-11-17,61,54,46,53,44,39,98,68,46,30.06,30.02,29.98,9,6,6,18,5,,0.16,1,Rain,229
2013-11-18,66,57,48,50,45,37,68,55,39,30.00,29.91,29.86,6,6,6,14,8,,0.00,4,,270
2013-11-19,67,58,50,52,50,43,76,60,46,30.01,29.97,29.95,9,6,5,16,9,,0.00,3,,287
2013-11-20,69,60,51,50,46,43,86,56,34,30.12,30.07,30.04,9,6,6,14,6,,0.00,2,,260
2013-11-21,67,59,51,45,44,43,71,51,33,30.13,30.04,29.98,6,6,6,7,5,,0.00,5,,181
2013-11-22,65,62,59,55,54,54,82,74,61,29.95,29.89,29.86,6,6,5,7,4,,0.12,6,Rain,103
2013-11-23,63,59,55,58,55,54,94,83,67,29.98,29.93,29.89,5,4,4,7,4,,0.12,6,Rain,136
2013-11-24,67,60,51,56,52,46,94,75,56,30.01,29.95,29.89,9,6,4,12,5,,0.00,2,Rain,356
2013-11-25,65,56,47,48,44,40,82,61,37,30.18,30.10,30.01,9,7,6,14,5,,0.00,1,,110
2013-11-26,63,52,42,48,43,37,76,61,37,30.20,30.12,30.04,9,7,6,14,6,,0.00,1,,125
2013-11-27,66,54,43,54,43,39,76,59,30,30.17,30.09,30.04,9,6,6,12,5,,0.00,4,,92
2013-11-28,64,54,44,48,45,37,71,59,42,30.24,30.19,30.15,9,7,6,20,7,28,0.00,5,,114
2013-11-29,66,57,48,48,45,39,71,57,42,30.34,30.28,30.24,9,7,6,12,7,,0.00,3,,100
2013-11-30,64,54,43,43,38,34,71,53,33,30.31,30.09,29.95,9,7,6,9,5,,0.00,,,227